When you browse on this site, cookies collect data to enhance your experience and personalize the content and advertising you see.
Visit our Privacy Policy to learn more. By continuing to use the site, you agree to this use of cookies and data.
  • In United Kingdom
  • List of Countries
  • For 7 days
  • Water Temperature
  • Satellite Maps
  • Weather Map
  • Weather Widgets
  • user-avatar
    Login

    Hourly Weather Mochudi

    Today, 21 January, Monday

    Time Temperature Precipitation Wind Pressure Humidity
    00:00 +25°C° 0 mm 2 mps 683 mmHg 55%
    01:00 +25°C° 0 mm 2 mps 683 mmHg 57%
    02:00 +24°C° 0 mm 3 mps 683 mmHg 61%
    03:00 +22°C° 0 mm 3 mps 683 mmHg 62%
    04:00 +22°C° 0 mm 4 mps 683 mmHg 63%
    05:00 +21°C° 0 mm 4 mps 683 mmHg 63%
    06:00 +22°C° 0 mm 4 mps 684 mmHg 62%
    07:00 +22°C° 0 mm 4 mps 684 mmHg 61%
    08:00 +23°C° 0 mm 4 mps 685 mmHg 60%
    09:00 +26°C° 0 mm 4 mps 685 mmHg 53%
    10:00 +28°C° 0 mm 4 mps 685 mmHg 46%
    11:00 +29°C° 0 mm 3 mps 685 mmHg 39%
    12:00 +31°C° 0 mm 3 mps 684 mmHg 33%
    13:00 +33°C° 0 mm 3 mps 684 mmHg 28%
    14:00 +32°C° 0 mm 2 mps 684 mmHg 27%
    15:00 +34°C° 0 mm 2 mps 683 mmHg 25%
    16:00 +34°C° 0 mm 2 mps 683 mmHg 23%
    17:00 +34°C° 0 mm 2 mps 682 mmHg 21%
    18:00 +31°C° 0 mm 2 mps 682 mmHg 24%
    19:00 +30°C° 0 mm 2 mps 681 mmHg 26%
    20:00 +28°C° 0 mm 1 mps 681 mmHg 29%
    21:00 +28°C° 0 mm 2 mps 681 mmHg 30%
    22:00 +27°C° 0 mm 2 mps 681 mmHg 31%
    23:00 +26°C° 0 mm 2 mps 681 mmHg 32%

    Tomorrow, 22 January, Tuesday

    Time Temperature Precipitation Wind Pressure Humidity
    00:00 +26°C° 0 mm 1 mps 681 mmHg 35%
    01:00 +25°C° 0 mm 1 mps 681 mmHg 37%
    02:00 +24°C° 0 mm 1 mps 680 mmHg 39%
    03:00 +24°C° 0 mm 1 mps 680 mmHg 41%
    04:00 +23°C° 0 mm 1 mps 680 mmHg 43%
    05:00 +23°C° 0 mm 1 mps 680 mmHg 46%
    06:00 +24°C° 0 mm 1 mps 681 mmHg 43%
    07:00 +25°C° 0 mm 2 mps 681 mmHg 41%
    08:00 +27°C° 0 mm 2 mps 682 mmHg 38%
    09:00 +29°C° 0 mm 2 mps 682 mmHg 33%
    10:00 +32°C° 0 mm 1 mps 682 mmHg 28%
    11:00 +35°C° 0 mm 1 mps 683 mmHg 23%
    12:00 +36°C° 0 mm 1 mps 682 mmHg 20%
    13:00 +37°C° 0 mm 1 mps 682 mmHg 17%
    14:00 +40°C° 0 mm 1 mps 681 mmHg 14%
    15:00 +39°C° 0 mm 1 mps 680 mmHg 13%
    16:00 +39°C° 0 mm 1 mps 680 mmHg 13%
    17:00 +37°C° 0 mm 1 mps 679 mmHg 12%
    18:00 +36°C° 0 mm 1 mps 679 mmHg 14%
    19:00 +35°C° 0 mm 2 mps 678 mmHg 15%
    20:00 +32°C° 0 mm 2 mps 678 mmHg 17%
    21:00 +31°C° 0 mm 2 mps 678 mmHg 18%
    22:00 +31°C° 0 mm 2 mps 678 mmHg 18%
    23:00 +30°C° 0 mm 2 mps 679 mmHg 19%

    Day after tomorrow, 23 January, Wednesday

    Time Temperature Precipitation Wind Pressure Humidity
    00:00 +29°C° 0 mm 2 mps 678 mmHg 20%
    01:00 +29°C° 0 mm 2 mps 678 mmHg 20%
    02:00 +28°C° 0 mm 2 mps 678 mmHg 21%
    03:00 +27°C° 0 mm 2 mps 678 mmHg 24%
    04:00 +26°C° 0 mm 2 mps 678 mmHg 27%
    05:00 +25°C° 0 mm 1 mps 678 mmHg 29%
    06:00 +26°C° 0 mm 2 mps 678 mmHg 29%
    07:00 +28°C° 0 mm 2 mps 679 mmHg 28%
    08:00 +29°C° 0 mm 3 mps 680 mmHg 27%
    09:00 +31°C° 0 mm 3 mps 680 mmHg 23%
    10:00 +34°C° 0 mm 3 mps 680 mmHg 20%
    11:00 +37°C° 0 mm 3 mps 680 mmHg 17%
    12:00 +38°C° 0 mm 2 mps 680 mmHg 15%
    13:00 +40°C° 0 mm 2 mps 680 mmHg 14%
    14:00 +41°C° 0 mm 1 mps 679 mmHg 13%
    15:00 +41°C° 0 mm 1 mps 678 mmHg 13%
    16:00 +41°C° 0 mm 1 mps 678 mmHg 13%
    17:00 +41°C° 0 mm 1 mps 677 mmHg 12%
    18:00 +39°C° 0 mm 1 mps 677 mmHg 14%
    19:00 +37°C° 0 mm 2 mps 677 mmHg 16%
    20:00 +35°C° 0 mm 2 mps 676 mmHg 18%
    21:00 +34°C° 0 mm 2 mps 677 mmHg 19%
    22:00 +32°C° 0 mm 2 mps 677 mmHg 20%
    23:00 +31°C° 0 mm 2 mps 677 mmHg 22%

    24 January, Thursday

    Time Temperature Precipitation Wind Pressure Humidity
    00:00 +31°C° 0 mm 2 mps 677 mmHg 23%
    01:00 +30°C° 0 mm 2 mps 676 mmHg 23%
    02:00 +30°C° 0 mm 2 mps 676 mmHg 24%
    03:00 +29°C° 0 mm 2 mps 676 mmHg 26%
    04:00 +29°C° 0 mm 2 mps 676 mmHg 28%
    05:00 +28°C° 0 mm 3 mps 676 mmHg 30%
    06:00 +29°C° 0 mm 3 mps 677 mmHg 30%
    07:00 +30°C° 0 mm 3 mps 678 mmHg 31%
    08:00 +30°C° 0 mm 3 mps 679 mmHg 31%
    09:00 +33°C° 0 mm 3 mps 679 mmHg 28%
    10:00 +35°C° 0 mm 3 mps 679 mmHg 25%
    11:00 +37°C° 0 mm 3 mps 680 mmHg 22%
    12:00 +39°C° 0 mm 3 mps 679 mmHg 20%
    13:00 +40°C° 0 mm 2 mps 679 mmHg 17%
    14:00 +41°C° 0 mm 2 mps 678 mmHg 15%
    15:00 +41°C° 0 mm 2 mps 678 mmHg 15%
    16:00 +41°C° 0 mm 2 mps 677 mmHg 15%
    17:00 +41°C° 0 mm 1 mps 677 mmHg 14%
    18:00 +40°C° 0 mm 2 mps 677 mmHg 17%
    19:00 +38°C° 0 mm 2 mps 677 mmHg 19%
    20:00 +36°C° 0 mm 3 mps 677 mmHg 21%
    21:00 +35°C° 0.1 mm 4 mps 677 mmHg 25%
    22:00 +34°C° 0.1 mm 6 mps 678 mmHg 28%
    23:00 +33°C° 0.1 mm 8 mps 678 mmHg 31%

    25 January, Friday

    Time Temperature Precipitation Wind Pressure Humidity
    00:00 +32°C° 0 mm 7 mps 678 mmHg 34%
    01:00 +30°C° 0 mm 7 mps 678 mmHg 37%
    02:00 +29°C° 0 mm 7 mps 678 mmHg 40%
    03:00 +29°C° 0 mm 6 mps 678 mmHg 39%
    04:00 +28°C° 0 mm 6 mps 679 mmHg 39%
    05:00 +28°C° 0 mm 5 mps 679 mmHg 38%
    06:00 +28°C° 0 mm 6 mps 680 mmHg 42%
    07:00 +28°C° 0 mm 6 mps 681 mmHg 46%
    08:00 +28°C° 0 mm 6 mps 682 mmHg 49%
    09:00 +29°C° 0 mm 6 mps 682 mmHg 47%
    10:00 +30°C° 0 mm 6 mps 682 mmHg 44%
    11:00 +33°C° 0 mm 6 mps 682 mmHg 41%
    12:00 +34°C° 0 mm 5 mps 682 mmHg 37%
    13:00 +36°C° 0 mm 5 mps 681 mmHg 33%
    14:00 +39°C° 0 mm 5 mps 681 mmHg 29%
    15:00 +38°C° 0 mm 4 mps 680 mmHg 27%
    16:00 +38°C° 0 mm 4 mps 680 mmHg 26%
    17:00 +39°C° 0 mm 3 mps 679 mmHg 24%
    18:00 +37°C° 0 mm 4 mps 679 mmHg 28%
    19:00 +35°C° 0 mm 5 mps 679 mmHg 31%
    20:00 +33°C° 0 mm 5 mps 679 mmHg 35%
    21:00 +32°C° 0 mm 5 mps 679 mmHg 37%
    22:00 +30°C° 0 mm 4 mps 680 mmHg 38%
    23:00 +29°C° 0 mm 4 mps 680 mmHg 40%

    26 January, Saturday

    Time Temperature Precipitation Wind Pressure Humidity
    00:00 +28°C° 0 mm 4 mps 680 mmHg 42%
    01:00 +28°C° 0 mm 4 mps 679 mmHg 44%
    02:00 +27°C° 0 mm 4 mps 679 mmHg 46%
    03:00 +26°C° 0 mm 4 mps 679 mmHg 50%
    04:00 +26°C° 0 mm 3 mps 680 mmHg 53%
    05:00 +25°C° 0 mm 3 mps 680 mmHg 56%
    06:00 +26°C° 0.1 mm 4 mps 680 mmHg 56%
    07:00 +27°C° 0.1 mm 4 mps 681 mmHg 56%
    08:00 +27°C° 0.1 mm 5 mps 682 mmHg 56%
    09:00 +29°C° 0 mm 5 mps 682 mmHg 50%
    10:00 +32°C° 0 mm 5 mps 682 mmHg 44%
    11:00 +34°C° 0 mm 5 mps 682 mmHg 38%
    12:00 +36°C° 0 mm 5 mps 682 mmHg 34%
    13:00 +37°C° 0 mm 4 mps 681 mmHg 30%
    14:00 +39°C° 0 mm 3 mps 681 mmHg 25%
    15:00 +39°C° 0 mm 3 mps 680 mmHg 24%
    16:00 +39°C° 0 mm 3 mps 680 mmHg 22%
    17:00 +40°C° 0 mm 3 mps 679 mmHg 21%
    18:00 +36°C° 1.1 mm 4 mps 679 mmHg 31%
    19:00 +32°C° 1.1 mm 5 mps 679 mmHg 40%
    20:00 +27°C° 1.1 mm 6 mps 679 mmHg 50%
    21:00 +28°C° 0.1 mm 6 mps 679 mmHg 49%
    22:00 +28°C° 0.1 mm 5 mps 680 mmHg 48%
    23:00 +28°C° 0.1 mm 5 mps 680 mmHg 47%
    Show more